OH5GWF-1 Weather Reports


Display with metric or nautical units.
time (UTC)temp
F
wind
direction
speed
MPH
gust
MPH
rain 1hr
in
rain 24hr
in
rain mn
in
humidity
%
barometer
mb
20260831050453 58 248 6.0 8.0 0.00 0.10 0.04 86 1006.7
20260831045750 59 248 1.0 5.0 0.00 0.10 0.04 86 1006.9
20260831045049 58 248 1.0 3.0 0.00 0.10 0.04 86 1006.9
20260831044347 58 248 0.0 0.0 0.00 0.10 0.04 86 1007.0
20260831043656 58 248 1.0 5.0 0.00 0.10 0.04 86 1007.0
20260831042954 58 248 1.0 1.0 0.00 0.10 0.04 86 1007.1
20260831042252 58 248 1.0 2.0 0.00 0.10 0.04 86 1007.2
20260831041549 58 248 1.0 3.0 0.00 0.10 0.04 86 1007.2
20260831040847 58 248 3.0 8.0 0.00 0.10 0.04 86 1007.3
20260831040156 58 248 1.0 5.0 0.00 0.10 0.04 86 1007.3
20260831035453 58 248 3.0 2.0 0.00 0.10 0.04 86 1007.2
20260831034752 58 248 2.0 5.0 0.02 0.10 0.04 86 1007.2
20260831034050 58 248 1.0 5.0 0.02 0.10 0.04 86 1007.2
20260831033349 58 248 0.0 2.0 0.02 0.10 0.04 86 1007.3
20260831032647 58 248 1.0 5.0 0.02 0.10 0.04 86 1007.4
20260831031956 58 248 3.0 8.0 0.02 0.10 0.04 86 1007.4
20260831031255 58 248 2.0 5.0 0.02 0.10 0.04 86 1007.6
20260831030555 58 248 2.0 3.0 0.02 0.10 0.04 86 1007.6
20260831025852 58 248 2.0 2.0 0.02 0.10 0.04 86 1007.8
20260831025151 58 248 2.0 5.0 0.02 0.10 0.04 86 1007.8
20260831024448 58 248 0.0 3.0 0.00 0.08 0.02 86 1007.8
20260831023746 58 248 3.0 5.0 0.00 0.08 0.02 86 1008.0
20260831023057 58 248 0.0 2.0 0.00 0.08 0.02 86 1008.0
20260831022355 58 248 0.0 0.0 0.00 0.08 0.02 86 1008.1
20260831021651 58 248 2.0 3.0 0.00 0.08 0.02 86 1008.0
20260831020951 58 248 0.0 5.0 0.00 0.08 0.02 86 1008.1
20260831020248 58 248 1.0 2.0 0.00 0.08 0.02 86 1008.1
20260831015546 58 248 1.0 1.0 0.00 0.08 0.02 86 1008.1
20260831014857 58 248 2.0 5.0 0.00 0.08 0.02 86 1008.1
20260831014156 58 248 2.0 2.0 0.00 0.08 0.02 86 1008.1
20260831013455 58 248 1.0 2.0 0.00 0.08 0.02 86 1008.1
20260831012753 58 248 0.0 3.0 0.00 0.08 0.02 86 1008.2
20260831012051 58 248 0.0 1.0 0.00 0.08 0.02 86 1008.2
20260831011349 57 248 1.0 1.0 0.00 0.08 0.02 86 1008.2
20260831010658 57 248 1.0 0.0 0.00 0.08 0.02 86 1008.3
20260831005956 57 248 1.0 3.0 0.00 0.08 0.02 86 1008.2
20260831005255 57 248 1.0 3.0 0.00 0.08 0.02 86 1008.2
20260831004553 57 248 1.0 2.0 0.00 0.08 0.02 86 1008.3
20260831003851 57 248 0.0 2.0 0.00 0.08 0.02 86 1008.3
20260831003147 57 248 1.0 2.0 0.00 0.08 0.02 86 1008.3
20260831002457 57 248 1.0 2.0 0.00 0.08 0.02 86 1008.3
20260831001755 57 248 1.0 3.0 0.00 0.08 0.02 86 1008.4
20260831001052 57 248 2.0 5.0 0.00 0.08 0.02 86 1008.5
20260831000350 57 248 1.0 2.0 0.00 0.08 0.02 86 1008.6
20260830235649 57 248 1.0 2.0 0.00 0.08 0.02 86 1008.8
20260830234948 57 248 0.0 1.0 0.00 0.08 0.02 86 1008.9
20260830234258 57 248 1.0 2.0 0.00 0.08 0.02 86 1009.0
20260830233555 57 248 1.0 3.0 0.00 0.08 0.02 86 1009.0
20260830232854 57 248 0.0 1.0 0.02 0.08 0.02 86 1009.1
20260830232153 57 248 0.0 0.0 0.02 0.08 0.02 86 1009.1
20260830231452 57 248 0.0 0.0 0.02 0.08 0.02 86 1009.2
20260830230750 56 248 1.0 2.0 0.02 0.08 0.02 86 1009.1
20260830230049 56 248 0.0 0.0 0.02 0.08 0.02 86 1009.1
20260830225347 56 248 1.0 1.0 0.02 0.08 0.02 86 1009.1
20260830224646 56 248 0.0 1.0 0.02 0.08 0.02 86 1009.1
20260830223957 56 248 0.0 2.0 0.02 0.08 0.02 86 1009.1
20260830223255 56 248 1.0 1.0 0.02 0.08 0.02 86 1009.1
20260830222555 56 248 0.0 0.0 0.00 0.06 0.00 86 1009.0
20260830221854 56 248 1.0 3.0 0.00 0.06 0.00 86 1009.1
20260830221152 56 248 0.0 3.0 0.00 0.06 0.00 86 1009.0
20260830220450 56 248 1.0 3.0 0.00 0.06 0.00 86 1009.0
20260830215748 55 248 1.0 2.0 0.00 0.06 0.00 85 1009.0
20260830215057 55 248 0.0 1.0 0.00 0.06 0.00 85 1009.0
20260830214354 55 248 1.0 3.0 0.00 0.06 0.00 85 1009.0
20260830213653 55 248 1.0 1.0 0.00 0.06 0.00 85 1009.0
20260830212951 55 248 0.0 1.0 0.00 0.06 0.00 85 1009.0
20260830212249 55 248 1.0 2.0 0.00 0.06 0.00 85 1009.0
20260830211558 55 248 1.0 2.0 0.00 0.06 0.00 85 1009.0
20260830210855 55 248 0.0 2.0 0.00 0.06 0.00 85 1009.1
20260830210153 55 248 1.0 2.0 0.00 0.06 0.00 85 1009.0
20260830205450 55 248 1.0 1.0 0.00 0.06 0.06 85 1009.0
20260830204748 55 248 1.0 1.0 0.00 0.06 0.06 85 1009.0
20260830204056 55 248 0.0 2.0 0.00 0.06 0.06 85 1008.9
20260830203355 55 248 1.0 3.0 0.00 0.06 0.06 85 1008.9
20260830202653 55 248 1.0 2.0 0.00 0.06 0.06 85 1008.9
20260830201951 55 248 0.0 1.0 0.00 0.06 0.06 85 1008.9
20260830201249 55 248 0.0 1.0 0.00 0.06 0.06 85 1008.8
20260830200547 55 248 0.0 0.0 0.00 0.06 0.06 85 1008.8
20260830195857 55 248 0.0 0.0 0.00 0.06 0.06 85 1008.7
20260830195157 56 248 0.0 1.0 0.00 0.06 0.06 85 1008.7
20260830194454 56 248 0.0 0.0 0.00 0.06 0.06 85 1008.7
20260830193753 56 248 0.0 1.0 0.00 0.06 0.06 85 1008.7
20260830193052 57 248 0.0 1.0 0.00 0.06 0.06 85 1008.6
20260830192350 57 248 1.0 2.0 0.00 0.06 0.06 85 1008.4
20260830191649 56 248 1.0 2.0 0.00 0.06 0.06 85 1008.6
20260830190958 56 248 1.0 2.0 0.00 0.06 0.06 85 1008.5
20260830190256 56 248 1.0 1.0 0.00 0.06 0.06 85 1008.6
20260830185554 56 248 0.0 0.0 0.00 0.06 0.06 85 1008.5
20260830184850 56 248 1.0 3.0 0.00 0.06 0.06 84 1008.5
20260830184148 56 248 1.0 2.0 0.00 0.06 0.06 84 1008.4
20260830183458 57 248 1.0 2.0 0.00 0.06 0.06 84 1008.5
20260830182756 57 248 1.0 1.0 0.00 0.06 0.06 84 1008.4
20260830182054 57 248 1.0 1.0 0.00 0.06 0.06 84 1008.4
20260830181350 57 248 0.0 1.0 0.00 0.06 0.06 84 1008.3
20260830180648 57 248 0.0 2.0 0.00 0.06 0.06 84 1008.3
20260830175957 58 248 1.0 1.0 0.00 0.06 0.06 84 1008.3
20260830175255 58 248 2.0 3.0 0.00 0.06 0.06 84 1008.3
20260830174552 58 248 1.0 2.0 0.00 0.06 0.06 84 1008.3
20260830173849 58 248 1.0 1.0 0.00 0.06 0.06 84 1008.2
20260830173147 58 248 1.0 2.0 0.00 0.06 0.06 84 1008.2
20260830172456 59 248 1.0 0.0 0.00 0.06 0.06 84 1008.2
20260830171755 60 248 1.0 1.0 0.00 0.06 0.06 84 1008.2
20260830171053 60 248 0.0 1.0 0.00 0.06 0.06 84 1008.2
20260830170350 61 248 0.0 0.0 0.00 0.06 0.06 84 1008.2
20260830165649 61 248 1.0 1.0 0.00 0.06 0.06 84 1008.2
20260830164948 62 248 0.0 0.0 0.00 0.06 0.06 84 1008.1
20260830164257 62 248 0.0 1.0 0.00 0.06 0.06 84 1008.1
20260830163556 62 248 0.0 0.0 0.00 0.06 0.06 84 1008.0
20260830162852 62 248 0.0 0.0 0.00 0.06 0.06 84 1008.0
20260830162150 63 248 0.0 0.0 0.00 0.06 0.06 84 1008.0
20260830161449 64 248 1.0 1.0 0.00 0.06 0.06 84 1008.1
20260830160747 64 248 1.0 3.0 0.00 0.06 0.06 84 1008.1
20260830160056 64 248 1.0 3.0 0.00 0.06 0.06 84 1008.1
20260830155354 64 248 0.0 0.0 0.00 0.06 0.06 84 1008.1
20260830154653 64 248 0.0 2.0 0.00 0.06 0.06 84 1008.1
20260830153951 65 248 1.0 5.0 0.00 0.06 0.06 84 1008.1
20260830153250 65 248 1.0 2.0 0.00 0.06 0.06 84 1008.1
20260830152549 66 248 0.0 2.0 0.00 0.06 0.06 84 1008.1
20260830151847 66 248 0.0 0.0 0.00 0.06 0.06 84 1008.0
20260830151157 66 248 1.0 1.0 0.00 0.06 0.06 84 1008.0
20260830150456 65 248 1.0 1.0 0.00 0.06 0.06 84 1008.0
20260830145753 65 248 1.0 2.0 0.00 0.06 0.06 84 1008.1
20260830145051 66 248 0.0 0.0 0.00 0.06 0.06 84 1008.1
20260830144349 66 248 1.0 2.0 0.00 0.06 0.06 84 1008.1
20260830143647 66 248 0.0 0.0 0.00 0.06 0.06 84 1008.1
20260830142956 66 248 0.0 0.0 0.00 0.06 0.06 84 1008.1
20260830142253 67 248 0.0 1.0 0.00 0.06 0.06 84 1008.1
20260830141551 67 248 1.0 1.0 0.00 0.06 0.06 84 1008.1
20260830140850 65 248 0.0 0.0 0.00 0.06 0.06 84 1008.2
20260830140149 64 248 1.0 1.0 0.00 0.06 0.06 84 1008.2
20260830135447 64 248 1.0 3.0 0.00 0.06 0.06 84 1008.2
20260830134756 65 248 0.0 0.0 0.00 0.06 0.06 84 1008.2
20260830134055 65 248 1.0 2.0 0.00 0.06 0.06 84 1008.1
20260830133353 65 248 2.0 5.0 0.00 0.06 0.06 84 1008.1
20260830132650 64 248 0.0 0.0 0.00 0.06 0.06 84 1008.0
20260830131949 64 248 1.0 3.0 0.00 0.06 0.06 83 1008.0
20260830131247 63 248 0.0 0.0 0.00 0.06 0.06 84 1008.0
20260830130558 62 248 1.0 1.0 0.00 0.06 0.06 84 1008.0
20260830125856 62 248 0.0 2.0 0.00 0.06 0.06 84 1008.0
20260830125153 61 248 1.0 2.0 0.00 0.06 0.06 84 1008.0
20260830124451 60 248 0.0 1.0 0.00 0.06 0.06 84 1008.1
20260830123749 60 248 0.0 1.0 0.00 0.06 0.06 84 1008.1
20260830123046 59 248 0.0 0.0 0.00 0.06 0.06 84 1008.2
20260830122356 59 248 0.0 0.0 0.00 0.06 0.06 84 1008.2
20260830121655 59 248 0.0 1.0 0.00 0.06 0.06 84 1008.3
20260830120953 59 248 1.0 0.0 0.02 0.06 0.06 84 1008.2
20260830120250 59 248 0.0 0.0 0.02 0.06 0.06 84 1008.3
20260830115548 59 248 0.0 1.0 0.02 0.06 0.06 84 1008.4
20260830114858 59 248 1.0 2.0 0.02 0.06 0.06 84 1008.4
20260830114156 60 248 1.0 2.0 0.02 0.06 0.06 84 1008.3
20260830113454 60 248 0.0 0.0 0.04 0.06 0.06 84 1008.3
20260830112752 60 248 0.0 0.0 0.04 0.06 0.06 84 1008.4
20260830112049 60 248 0.0 0.0 0.04 0.06 0.06 84 1008.4
20260830111347 60 248 0.0 1.0 0.04 0.04 0.04 83 1008.4
20260830110656 60 248 0.0 0.0 0.04 0.04 0.04 84 1008.4
20260830105954 60 248 0.0 0.0 0.04 0.04 0.04 84 1008.4
20260830105253 60 248 0.0 1.0 0.04 0.04 0.04 84 1008.4
20260830104551 60 248 0.0 2.0 0.04 0.04 0.04 83 1008.4
20260830103849 60 248 0.0 1.0 0.02 0.02 0.02 84 1008.4
20260830103157 60 248 0.0 0.0 0.02 0.02 0.02 84 1008.4
20260830102455 60 248 0.0 0.0 0.02 0.02 0.02 84 1008.4
20260830101755 60 248 0.0 1.0 0.02 0.02 0.02 84 1008.3
20260830101052 60 248 0.0 3.0 0.00 0.00 0.00 84 1008.4
20260830100350 61 248 1.0 2.0 0.00 0.00 0.00 84 1008.3
20260830095647 61 248 1.0 1.0 0.00 0.00 0.00 84 1008.3
20260830094957 62 248 0.0 0.0 0.00 0.00 0.00 84 1008.3
20260830094255 62 248 0.0 2.0 0.00 0.00 0.00 84 1008.3
20260830094220 62 248 1.0 2.0 0.00 0.00 0.00 84 1008.3
20260830093551 62 248 0.0 0.0 0.00 0.00 0.00 84 1008.3
20260830093126 62 248 1.0 2.0 0.00 0.00 0.00 84 1008.3
20260830092849 62 248 1.0 3.0 0.00 0.00 0.00 84 1008.3
20260830092158 62 248 2.0 3.0 0.00 0.00 0.00 84 1008.3
20260830092023 62 248 3.0 6.0 0.00 0.00 0.00 84 1008.4
20260830091456 61 248 1.0 2.0 0.00 0.00 0.00 84 1008.4
20260830090922 61 248 1.0 3.0 0.00 0.00 0.00 84 1008.4
20260830090755 61 248 2.0 1.0 0.00 0.00 0.00 84 1008.4
20260830090104 61 248 1.0 3.0 0.00 0.00 0.00 84 1008.4
20260830085817 61 248 0.0 6.0 0.00 0.00 0.00 84 1008.4
20260830085351 61 248 2.0 8.0 0.00 0.00 0.00 84 1008.5
20260830084727 61 248 2.0 1.0 0.00 0.00 0.00 84 1008.4
20260830084650 61 248 2.0 1.0 0.00 0.00 0.00 84 1008.4
20260830083946 61 248 0.0 2.0 0.00 0.00 0.00 84 1008.4
20260830083623 61 248 0.0 2.0 0.00 0.00 0.00 84 1008.4
20260830083257 61 248 1.0 2.0 0.00 0.00 0.00 84 1008.4
20260830082554 62 248 1.0 6.0 0.00 0.00 0.00 84 1008.4
20260830082519 62 248 1.0 3.0 0.00 0.00 0.00 84 1008.4
20260830081853 62 248 0.0 1.0 0.00 0.00 0.00 84 1008.4
20260830081417 62 248 1.0 2.0 0.00 0.00 0.00 84 1008.4
20260830081152 62 248 0.0 3.0 0.00 0.00 0.00 84 1008.3
20260830080449 62 248 2.0 3.0 0.00 0.00 0.00 84 1008.3
20260830080327 61 248 1.0 2.0 0.00 0.00 0.00 84 1008.4
20260830075747 61 248 0.0 0.0 0.00 0.00 0.00 84 1008.4
20260830075223 61 248 0.0 0.0 0.00 0.00 0.00 84 1008.5
20260830075057 61 248 0.0 0.0 0.00 0.00 0.00 84 1008.5
20260830074354 60 248 0.0 0.0 0.00 0.00 0.00 84 1008.6
20260830074118 61 248 1.0 3.0 0.00 0.00 0.00 84 1008.5
20260830073652 61 248 1.0 3.0 0.00 0.00 0.00 84 1008.6
20260830073027 61 248 0.0 0.0 0.00 0.00 0.00 84 1008.6
20260830072950 61 248 0.0 0.0 0.00 0.00 0.00 84 1008.6
20260830072248 61 248 0.0 0.0 0.00 0.00 0.00 84 1008.5
20260830071924 61 248 0.0 0.0 0.00 0.00 0.00 84 1008.5
20260830071556 61 248 2.0 3.0 0.00 0.00 0.00 84 1008.5
20260830070854 62 248 0.0 2.0 0.00 0.00 0.00 84 1008.4
20260830070819 62 248 2.0 2.0 0.00 0.00 0.00 84 1008.4
20260830070153 62 248 2.0 3.0 0.00 0.00 0.00 84 1008.4
20260830065717 62 248 0.0 2.0 0.00 0.00 0.00 84 1008.4
20260830065452 61 248 1.0 2.0 0.00 0.00 0.00 84 1008.4
20260830064750 61 248 1.0 3.0 0.00 0.00 0.00 84 1008.4
20260830064627 61 248 1.0 5.0 0.00 0.00 0.00 84 1008.4
20260830064046 61 248 5.0 5.0 0.00 0.00 0.00 84 1008.5
20260830063522 61 248 2.0 3.0 0.00 0.00 0.00 84 1008.5
20260830063356 60 248 1.0 5.0 0.00 0.00 0.00 84 1008.5
20260830062654 60 248 2.0 2.0 0.00 0.00 0.00 84 1008.5
20260830062418 60 248 0.0 0.0 0.00 0.00 0.00 84 1008.4
20260830061951 60 248 1.0 5.0 0.00 0.00 0.00 84 1008.4
20260830061328 60 248 3.0 8.0 0.00 0.00 0.00 84 1008.5
20260830061248 60 248 3.0 8.0 0.00 0.00 0.00 84 1008.5
20260830060559 60 248 2.0 3.0 0.00 0.00 0.00 84 1008.6
20260830060222 60 248 1.0 7.0 0.00 0.00 0.00 84 1008.7
20260830055855 60 248 0.0 2.0 0.00 0.00 0.00 84 1008.6
20260830055154 60 248 1.0 9.0 0.00 0.00 0.00 84 1008.6
20260830054452 60 248 2.0 3.0 0.00 0.00 0.00 84 1008.5
20260830053751 60 248 2.0 3.0 0.00 0.00 0.00 84 1008.6
20260830053050 60 248 2.0 3.0 0.00 0.00 0.00 84 1008.5
20260830052347 60 248 1.0 2.0 0.00 0.00 0.00 84 1008.5
20260830051657 59 248 3.0 6.0 0.00 0.00 0.00 84 1008.5